weather.gov     
National Weather Service

Regional Weather Roundup
NWS Homepage
This page is being discontinued on March 12, 2014.
The same data is available at this site. Please update your bookmarks.
Thank you, and we apologize for the inconvenience.
Please send an email to SR-SRH.Webmaster@noaa.gov with any concerns.


Current Version
Previous Version:    01  02  03  04  05  06  07  08  09  10  11  12  13  14  15  16  17  18  19  20  21  22  23  24  25  26  
[Printable]
493
ASUS45 KREV 301810
RWRNV
NEVADA REGIONAL WEATHER ROUNDUP
NATIONAL WEATHER SERVICE RENO NV
1100 AM PDT THU OCT 30 2014

NOTE: "FAIR" INDICATES FEW OR NO CLOUDS BELOW 12,000 FEET WITH NO
SIGNIFICANT WEATHER AND/OR OBSTRUCTIONS TO VISIBILITY.

NVZ001-003-004-301900-
WESTERN NEVADA

CITY           SKY/WX    TMP DP  RH WIND       PRES   REMARKS
RENO           CLOUDY    48  34  58 CALM      30.14F
6HR MIN TEMP:  37; 6HR MAX TEMP:  48;

CARSON CITY    FAIR      45  28  53 CALM      30.16F
MINDEN         FAIR      41  27  56 CALM      30.17
SLIDE MTN        N/A     43  19  39 SW18        N/A
PYRAMID LAKE     N/A     55 N/A N/A E2          N/A
FALLON         CLOUDY    60  30  32 NE5       30.12F
6HR MIN TEMP:  33; 6HR MAX TEMP:  60;

LOVELOCK       CLOUDY    52  31  44 CALM      30.14F
6HR MIN TEMP:  26; 6HR MAX TEMP:  52;

HAWTHORNE      SUNNY     57  32  38 CALM      30.13F
$$

NVZ002-CAZ072-073-301900-
NORTHERN AND CENTRAL SIERRA

CITY           SKY/WX    TMP DP  RH WIND       PRES   REMARKS
S. LAKE TAHOE  PTSUNNY   42  33  70 CALM      30.20S
6HR MIN TEMP:  29; 6HR MAX TEMP:  42;

TRUCKEE        PTSUNNY   37  34  87 CALM      30.19F
SQUAW VLY 8000 NOT AVBL
BLUE CANYON    MOSUNNY   63  25  23 S8        30.15S
MAMMOTH LAKES  FAIR      52  21  30 SE7       30.26F
$$

NVZ030-031-036-301900-
NORTHERN NEVADA

CITY           SKY/WX    TMP DP  RH WIND       PRES   REMARKS
ELKO           SUNNY     54  26  34 NE5       30.23F
6HR MIN TEMP:  29; 6HR MAX TEMP:  54;

WINNEMUCCA     MOSUNNY   56  27  32 NE9       30.14F
6HR MIN TEMP:  30; 6HR MAX TEMP:  56;

WENDOVER       SUNNY     52  27  37 E6        30.27F
$$

NVZ035-037-301900-
CENTRAL NEVADA

CITY           SKY/WX    TMP DP  RH WIND       PRES   REMARKS
ELY            SUNNY     64  21  19 SW12      30.27F
6HR MIN TEMP:  26; 6HR MAX TEMP:  64;

EUREKA           N/A     57  24  28 CALM      30.24F
6HR MIN TEMP:  28; 6HR MAX TEMP:  57;

$$

NVZ013-014-301900-
SOUTH CENTRAL NEVADA

CITY           SKY/WX    TMP DP  RH WIND       PRES   REMARKS
TONOPAH        SUNNY     63  17  17 VRB3      30.22F
6HR MIN TEMP:  38; 6HR MAX TEMP:  63;

$$

NVZ017-020-022-301900-
SOUTHERN NEVADA

CITY           SKY/WX    TMP DP  RH WIND       PRES   REMARKS
LAS VEGAS      MOSUNNY   74  20  13 CALM      30.07F
6HR MIN TEMP:  58; 6HR MAX TEMP:  75;

N. LAS VEGAS   SUNNY     72  19  13 SE3       30.09F
6HR MIN TEMP:  53; 6HR MAX TEMP:  72;

NELLIS AFB     SUNNY     73  22  14 N6        30.08F
6HR MIN TEMP:  48; 6HR MAX TEMP:  73;

HENDERSON      MOSUNNY   74  22  14 NE5       30.12F
6HR MIN TEMP:  53; 6HR MAX TEMP:  75;

MERCURY        MOSUNNY   72  15  11 E7        30.12F
6HR MIN TEMP:  47; 6HR MAX TEMP:  72;

$$




U.S. Dept. of Commerce
NOAA National Weather Service
1325 East West Highway
Silver Spring, MD 20910
E-mail: w-nws.webmaster@noaa.gov
Page last modified: May 16, 2007
NATIONAL WEATHER SERVICE: for Safety, for Work, for Fun - FOR LIFE